Location: Boca de Tacagua
(10.5333°N, 66.9833°W)
Time: 06:15:08
(UTC+00:00)

Ariane H10-3 - Pass Details

Date: 07 July 2022
Orbit: 475 x 36438 km, 5.2° (Epoch: 12 August)

Event Time Altitude Azimuth Distance (km) Brightness Sun altitude
Rises 02:38:36 0° 272° (W) 18,230 9.4 -46.6°
Reaches altitude 10° 03:02:25 10° 270° (W) 22,033 9.6 -50.1°
Maximum altitude 04:05:07 17° 269° (W) 30,703 10.0 -56.2°
Drops below altitude 10° 05:48:14 10° 269° (W) 39,568 10.4 -52.1°
Sets 07:14:10 0° 270° (W) 42,315 10.5 -38.5°
